Index of /20260429/WXO-DD/model_rdps/10km/12/034
Name Last modified Size Description
Parent Directory -
20260429T12Z_MSC_RDPS_AbsoluteVorticity_IsbL-0250_RLatLon0.09_PT034H.grib2 2026-04-29 14:52 617K
20260429T12Z_MSC_RDPS_AbsoluteVorticity_IsbL-0500_RLatLon0.09_PT034H.grib2 2026-04-29 14:52 567K
20260429T12Z_MSC_RDPS_AbsoluteVorticity_IsbL-0700_RLatLon0.09_PT034H.grib2 2026-04-29 14:52 625K
20260429T12Z_MSC_RDPS_AbsoluteVorticity_IsbL-0850_RLatLon0.09_PT034H.grib2 2026-04-29 14:52 772K
20260429T12Z_MSC_RDPS_AirTemp_AGL-120m_RLatLon0.09_PT034H.grib2 2026-04-29 14:52 391K
20260429T12Z_MSC_RDPS_AirTemp_AGL-2m_RLatLon0.09_PT034H.grib2 2026-04-29 14:52 624K
20260429T12Z_MSC_RDPS_AirTemp_AGL-40m_RLatLon0.09_PT034H.grib2 2026-04-29 14:52 401K
20260429T12Z_MSC_RDPS_AirTemp_AGL-80m_RLatLon0.09_PT034H.grib2 2026-04-29 14:52 395K
20260429T12Z_MSC_RDPS_AirTemp_IsbL-0001_RLatLon0.09_PT034H.grib2 2026-04-29 14:52 272K
20260429T12Z_MSC_RDPS_AirTemp_IsbL-0005_RLatLon0.09_PT034H.grib2 2026-04-29 14:52 289K
20260429T12Z_MSC_RDPS_AirTemp_IsbL-0010_RLatLon0.09_PT034H.grib2 2026-04-29 14:52 304K
20260429T12Z_MSC_RDPS_AirTemp_IsbL-0020_RLatLon0.09_PT034H.grib2 2026-04-29 14:52 320K
20260429T12Z_MSC_RDPS_AirTemp_IsbL-0030_RLatLon0.09_PT034H.grib2 2026-04-29 14:52 343K
20260429T12Z_MSC_RDPS_AirTemp_IsbL-0050_RLatLon0.09_PT034H.grib2 2026-04-29 14:52 314K
20260429T12Z_MSC_RDPS_AirTemp_IsbL-0100_RLatLon0.09_PT034H.grib2 2026-04-29 14:52 426K
20260429T12Z_MSC_RDPS_AirTemp_IsbL-0150_RLatLon0.09_PT034H.grib2 2026-04-29 14:52 424K
20260429T12Z_MSC_RDPS_AirTemp_IsbL-0175_RLatLon0.09_PT034H.grib2 2026-04-29 14:52 413K
20260429T12Z_MSC_RDPS_AirTemp_IsbL-0200_RLatLon0.09_PT034H.grib2 2026-04-29 14:52 417K
20260429T12Z_MSC_RDPS_AirTemp_IsbL-0225_RLatLon0.09_PT034H.grib2 2026-04-29 14:52 417K
20260429T12Z_MSC_RDPS_AirTemp_IsbL-0250_RLatLon0.09_PT034H.grib2 2026-04-29 14:52 425K
20260429T12Z_MSC_RDPS_AirTemp_IsbL-0275_RLatLon0.09_PT034H.grib2 2026-04-29 14:52 404K
20260429T12Z_MSC_RDPS_AirTemp_IsbL-0300_RLatLon0.09_PT034H.grib2 2026-04-29 14:52 435K
20260429T12Z_MSC_RDPS_AirTemp_IsbL-0350_RLatLon0.09_PT034H.grib2 2026-04-29 14:52 424K
20260429T12Z_MSC_RDPS_AirTemp_IsbL-0400_RLatLon0.09_PT034H.grib2 2026-04-29 14:52 425K
20260429T12Z_MSC_RDPS_AirTemp_IsbL-0450_RLatLon0.09_PT034H.grib2 2026-04-29 14:52 399K
20260429T12Z_MSC_RDPS_AirTemp_IsbL-0500_RLatLon0.09_PT034H.grib2 2026-04-29 14:52 410K
20260429T12Z_MSC_RDPS_AirTemp_IsbL-0550_RLatLon0.09_PT034H.grib2 2026-04-29 14:52 430K
20260429T12Z_MSC_RDPS_AirTemp_IsbL-0600_RLatLon0.09_PT034H.grib2 2026-04-29 14:52 452K
20260429T12Z_MSC_RDPS_AirTemp_IsbL-0650_RLatLon0.09_PT034H.grib2 2026-04-29 14:52 364K
20260429T12Z_MSC_RDPS_AirTemp_IsbL-0700_RLatLon0.09_PT034H.grib2 2026-04-29 14:52 384K
20260429T12Z_MSC_RDPS_AirTemp_IsbL-0750_RLatLon0.09_PT034H.grib2 2026-04-29 14:52 414K
20260429T12Z_MSC_RDPS_AirTemp_IsbL-0800_RLatLon0.09_PT034H.grib2 2026-04-29 14:52 449K
20260429T12Z_MSC_RDPS_AirTemp_IsbL-0850_RLatLon0.09_PT034H.grib2 2026-04-29 14:52 494K
20260429T12Z_MSC_RDPS_AirTemp_IsbL-0875_RLatLon0.09_PT034H.grib2 2026-04-29 14:52 517K
20260429T12Z_MSC_RDPS_AirTemp_IsbL-0900_RLatLon0.09_PT034H.grib2 2026-04-29 14:52 529K
20260429T12Z_MSC_RDPS_AirTemp_IsbL-0925_RLatLon0.09_PT034H.grib2 2026-04-29 14:52 528K
20260429T12Z_MSC_RDPS_AirTemp_IsbL-0950_RLatLon0.09_PT034H.grib2 2026-04-29 14:52 528K
20260429T12Z_MSC_RDPS_AirTemp_IsbL-0970_RLatLon0.09_PT034H.grib2 2026-04-29 14:52 531K
20260429T12Z_MSC_RDPS_AirTemp_IsbL-0985_RLatLon0.09_PT034H.grib2 2026-04-29 14:52 524K
20260429T12Z_MSC_RDPS_AirTemp_IsbL-1000_RLatLon0.09_PT034H.grib2 2026-04-29 14:52 511K
20260429T12Z_MSC_RDPS_AirTemp_IsbL-1015_RLatLon0.09_PT034H.grib2 2026-04-29 14:52 506K
20260429T12Z_MSC_RDPS_Albedo_Sfc_RLatLon0.09_PT034H.grib2 2026-04-29 14:52 157K
20260429T12Z_MSC_RDPS_CAPE_Sfc_RLatLon0.09_PT034H.grib2 2026-04-29 14:52 1.8M
20260429T12Z_MSC_RDPS_CIN_Sfc_RLatLon0.09_PT034H.grib2 2026-04-29 14:52 1.2M
20260429T12Z_MSC_RDPS_CloudWater_EAtm_RLatLon0.09_PT034H.grib2 2026-04-29 14:52 223K
20260429T12Z_MSC_RDPS_ConvectivePrecip-Accum_Sfc_RLatLon0.09_PT034H.grib2 2026-04-29 14:52 902K
20260429T12Z_MSC_RDPS_DewPointDepression_AGL-2m_RLatLon0.09_PT034H.grib2 2026-04-29 14:52 417K
20260429T12Z_MSC_RDPS_DewPointDepression_IsbL-0001_RLatLon0.09_PT034H.grib2 2026-04-29 14:52 193
20260429T12Z_MSC_RDPS_DewPointDepression_IsbL-0005_RLatLon0.09_PT034H.grib2 2026-04-29 14:52 193
20260429T12Z_MSC_RDPS_DewPointDepression_IsbL-0010_RLatLon0.09_PT034H.grib2 2026-04-29 14:52 193
20260429T12Z_MSC_RDPS_DewPointDepression_IsbL-0020_RLatLon0.09_PT034H.grib2 2026-04-29 14:52 193
20260429T12Z_MSC_RDPS_DewPointDepression_IsbL-0030_RLatLon0.09_PT034H.grib2 2026-04-29 14:52 193
20260429T12Z_MSC_RDPS_DewPointDepression_IsbL-0050_RLatLon0.09_PT034H.grib2 2026-04-29 14:52 82K
20260429T12Z_MSC_RDPS_DewPointDepression_IsbL-0100_RLatLon0.09_PT034H.grib2 2026-04-29 14:52 130K
20260429T12Z_MSC_RDPS_DewPointDepression_IsbL-0150_RLatLon0.09_PT034H.grib2 2026-04-29 14:52 155K
20260429T12Z_MSC_RDPS_DewPointDepression_IsbL-0175_RLatLon0.09_PT034H.grib2 2026-04-29 14:52 185K
20260429T12Z_MSC_RDPS_DewPointDepression_IsbL-0200_RLatLon0.09_PT034H.grib2 2026-04-29 14:52 223K
20260429T12Z_MSC_RDPS_DewPointDepression_IsbL-0225_RLatLon0.09_PT034H.grib2 2026-04-29 14:52 265K
20260429T12Z_MSC_RDPS_DewPointDepression_IsbL-0250_RLatLon0.09_PT034H.grib2 2026-04-29 14:52 302K
20260429T12Z_MSC_RDPS_DewPointDepression_IsbL-0275_RLatLon0.09_PT034H.grib2 2026-04-29 14:52 307K
20260429T12Z_MSC_RDPS_DewPointDepression_IsbL-0300_RLatLon0.09_PT034H.grib2 2026-04-29 14:52 329K
20260429T12Z_MSC_RDPS_DewPointDepression_IsbL-0350_RLatLon0.09_PT034H.grib2 2026-04-29 14:52 334K
20260429T12Z_MSC_RDPS_DewPointDepression_IsbL-0400_RLatLon0.09_PT034H.grib2 2026-04-29 14:52 342K
20260429T12Z_MSC_RDPS_DewPointDepression_IsbL-0450_RLatLon0.09_PT034H.grib2 2026-04-29 14:52 351K
20260429T12Z_MSC_RDPS_DewPointDepression_IsbL-0500_RLatLon0.09_PT034H.grib2 2026-04-29 14:52 355K
20260429T12Z_MSC_RDPS_DewPointDepression_IsbL-0550_RLatLon0.09_PT034H.grib2 2026-04-29 14:52 369K
20260429T12Z_MSC_RDPS_DewPointDepression_IsbL-0600_RLatLon0.09_PT034H.grib2 2026-04-29 14:52 387K
20260429T12Z_MSC_RDPS_DewPointDepression_IsbL-0650_RLatLon0.09_PT034H.grib2 2026-04-29 14:52 396K
20260429T12Z_MSC_RDPS_DewPointDepression_IsbL-0700_RLatLon0.09_PT034H.grib2 2026-04-29 14:52 402K
20260429T12Z_MSC_RDPS_DewPointDepression_IsbL-0750_RLatLon0.09_PT034H.grib2 2026-04-29 14:52 421K
20260429T12Z_MSC_RDPS_DewPointDepression_IsbL-0800_RLatLon0.09_PT034H.grib2 2026-04-29 14:52 448K
20260429T12Z_MSC_RDPS_DewPointDepression_IsbL-0850_RLatLon0.09_PT034H.grib2 2026-04-29 14:52 470K
20260429T12Z_MSC_RDPS_DewPointDepression_IsbL-0875_RLatLon0.09_PT034H.grib2 2026-04-29 14:52 477K
20260429T12Z_MSC_RDPS_DewPointDepression_IsbL-0900_RLatLon0.09_PT034H.grib2 2026-04-29 14:52 473K
20260429T12Z_MSC_RDPS_DewPointDepression_IsbL-0925_RLatLon0.09_PT034H.grib2 2026-04-29 14:52 458K
20260429T12Z_MSC_RDPS_DewPointDepression_IsbL-0950_RLatLon0.09_PT034H.grib2 2026-04-29 14:52 447K
20260429T12Z_MSC_RDPS_DewPointDepression_IsbL-0970_RLatLon0.09_PT034H.grib2 2026-04-29 14:52 437K
20260429T12Z_MSC_RDPS_DewPointDepression_IsbL-0985_RLatLon0.09_PT034H.grib2 2026-04-29 14:52 432K
20260429T12Z_MSC_RDPS_DewPointDepression_IsbL-1000_RLatLon0.09_PT034H.grib2 2026-04-29 14:52 427K
20260429T12Z_MSC_RDPS_DewPointDepression_IsbL-1015_RLatLon0.09_PT034H.grib2 2026-04-29 14:52 417K
20260429T12Z_MSC_RDPS_DewPoint_AGL-2m_RLatLon0.09_PT034H.grib2 2026-04-29 14:52 310K
20260429T12Z_MSC_RDPS_DownwardLongwaveRadiationFlux-Accum_Sfc_RLatLon0.09_PT034H.grib2 2026-04-29 14:52 361K
20260429T12Z_MSC_RDPS_DownwardShortwaveRadiationFlux-Accum_NTAtm_RLatLon0.09_PT034H.grib2 2026-04-29 14:52 99K
20260429T12Z_MSC_RDPS_DownwardShortwaveRadiationFlux-Accum_Sfc_RLatLon0.09_PT034H.grib2 2026-04-29 14:52 524K
20260429T12Z_MSC_RDPS_FreezingRain-Accum1h_Sfc_RLatLon0.09_PT034H.grib2 2026-04-29 14:52 14K
20260429T12Z_MSC_RDPS_FreezingRain-Accum_Sfc_RLatLon0.09_PT034H.grib2 2026-04-29 14:52 133K
20260429T12Z_MSC_RDPS_GeopotentialHeight_IsbL-0001_RLatLon0.09_PT034H.grib2 2026-04-29 14:52 243K
20260429T12Z_MSC_RDPS_GeopotentialHeight_IsbL-0005_RLatLon0.09_PT034H.grib2 2026-04-29 14:52 338K
20260429T12Z_MSC_RDPS_GeopotentialHeight_IsbL-0010_RLatLon0.09_PT034H.grib2 2026-04-29 14:52 305K
20260429T12Z_MSC_RDPS_GeopotentialHeight_IsbL-0020_RLatLon0.09_PT034H.grib2 2026-04-29 14:52 305K
20260429T12Z_MSC_RDPS_GeopotentialHeight_IsbL-0030_RLatLon0.09_PT034H.grib2 2026-04-29 14:52 307K
20260429T12Z_MSC_RDPS_GeopotentialHeight_IsbL-0050_RLatLon0.09_PT034H.grib2 2026-04-29 14:52 307K
20260429T12Z_MSC_RDPS_GeopotentialHeight_IsbL-0100_RLatLon0.09_PT034H.grib2 2026-04-29 14:52 285K
20260429T12Z_MSC_RDPS_GeopotentialHeight_IsbL-0150_RLatLon0.09_PT034H.grib2 2026-04-29 14:52 228K
20260429T12Z_MSC_RDPS_GeopotentialHeight_IsbL-0175_RLatLon0.09_PT034H.grib2 2026-04-29 14:52 262K
20260429T12Z_MSC_RDPS_GeopotentialHeight_IsbL-0200_RLatLon0.09_PT034H.grib2 2026-04-29 14:52 265K
20260429T12Z_MSC_RDPS_GeopotentialHeight_IsbL-0225_RLatLon0.09_PT034H.grib2 2026-04-29 14:52 267K
20260429T12Z_MSC_RDPS_GeopotentialHeight_IsbL-0250_RLatLon0.09_PT034H.grib2 2026-04-29 14:52 268K
20260429T12Z_MSC_RDPS_GeopotentialHeight_IsbL-0275_RLatLon0.09_PT034H.grib2 2026-04-29 14:52 266K
20260429T12Z_MSC_RDPS_GeopotentialHeight_IsbL-0300_RLatLon0.09_PT034H.grib2 2026-04-29 14:52 235K
20260429T12Z_MSC_RDPS_GeopotentialHeight_IsbL-0350_RLatLon0.09_PT034H.grib2 2026-04-29 14:52 231K
20260429T12Z_MSC_RDPS_GeopotentialHeight_IsbL-0400_RLatLon0.09_PT034H.grib2 2026-04-29 14:52 229K
20260429T12Z_MSC_RDPS_GeopotentialHeight_IsbL-0450_RLatLon0.09_PT034H.grib2 2026-04-29 14:52 296K
20260429T12Z_MSC_RDPS_GeopotentialHeight_IsbL-0500_RLatLon0.09_PT034H.grib2 2026-04-29 14:52 292K
20260429T12Z_MSC_RDPS_GeopotentialHeight_IsbL-0550_RLatLon0.09_PT034H.grib2 2026-04-29 14:52 288K
20260429T12Z_MSC_RDPS_GeopotentialHeight_IsbL-0600_RLatLon0.09_PT034H.grib2 2026-04-29 14:52 258K
20260429T12Z_MSC_RDPS_GeopotentialHeight_IsbL-0650_RLatLon0.09_PT034H.grib2 2026-04-29 14:52 255K
20260429T12Z_MSC_RDPS_GeopotentialHeight_IsbL-0700_RLatLon0.09_PT034H.grib2 2026-04-29 14:52 336K
20260429T12Z_MSC_RDPS_GeopotentialHeight_IsbL-0750_RLatLon0.09_PT034H.grib2 2026-04-29 14:52 338K
20260429T12Z_MSC_RDPS_GeopotentialHeight_IsbL-0800_RLatLon0.09_PT034H.grib2 2026-04-29 14:52 343K
20260429T12Z_MSC_RDPS_GeopotentialHeight_IsbL-0850_RLatLon0.09_PT034H.grib2 2026-04-29 14:52 384K
20260429T12Z_MSC_RDPS_GeopotentialHeight_IsbL-0875_RLatLon0.09_PT034H.grib2 2026-04-29 14:52 388K
20260429T12Z_MSC_RDPS_GeopotentialHeight_IsbL-0900_RLatLon0.09_PT034H.grib2 2026-04-29 14:52 393K
20260429T12Z_MSC_RDPS_GeopotentialHeight_IsbL-0925_RLatLon0.09_PT034H.grib2 2026-04-29 14:52 395K
20260429T12Z_MSC_RDPS_GeopotentialHeight_IsbL-0950_RLatLon0.09_PT034H.grib2 2026-04-29 14:52 399K
20260429T12Z_MSC_RDPS_GeopotentialHeight_IsbL-0970_RLatLon0.09_PT034H.grib2 2026-04-29 14:52 406K
20260429T12Z_MSC_RDPS_GeopotentialHeight_IsbL-0985_RLatLon0.09_PT034H.grib2 2026-04-29 14:52 416K
20260429T12Z_MSC_RDPS_GeopotentialHeight_IsbL-1000_RLatLon0.09_PT034H.grib2 2026-04-29 14:52 429K
20260429T12Z_MSC_RDPS_GeopotentialHeight_IsbL-1015_RLatLon0.09_PT034H.grib2 2026-04-29 14:52 410K
20260429T12Z_MSC_RDPS_Humidex_Sfc_RLatLon0.09_PT034H.grib2 2026-04-29 14:52 2.4M
20260429T12Z_MSC_RDPS_IcePellets-Accum1h_Sfc_RLatLon0.09_PT034H.grib2 2026-04-29 14:52 2.5K
20260429T12Z_MSC_RDPS_IcePellets-Accum_Sfc_RLatLon0.09_PT034H.grib2 2026-04-29 14:52 12K
20260429T12Z_MSC_RDPS_KIndex_Sfc_RLatLon0.09_PT034H.grib2 2026-04-29 14:52 2.3M
20260429T12Z_MSC_RDPS_LatentHeatNetFlux_Sfc_RLatLon0.09_PT034H.grib2 2026-04-29 14:52 288K
20260429T12Z_MSC_RDPS_LiftedIndex-MU-VT_IsbL-0500_RLatLon0.09_PT034H.grib2 2026-04-29 14:52 2.4M
20260429T12Z_MSC_RDPS_NetLongwaveRadiationFlux-Accum_Sfc_RLatLon0.09_PT034H.grib2 2026-04-29 14:52 491K
20260429T12Z_MSC_RDPS_NetShortwaveRadiationFlux-Accum_Sfc_RLatLon0.09_PT034H.grib2 2026-04-29 14:52 526K
20260429T12Z_MSC_RDPS_PlanetaryBoundaryLayerHeight_Sfc_RLatLon0.09_PT034H.grib2 2026-04-29 14:52 1.0M
20260429T12Z_MSC_RDPS_Precip-Accum1h_Sfc_RLatLon0.09_PT034H.grib2 2026-04-29 14:52 1.2M
20260429T12Z_MSC_RDPS_Precip-Accum_Sfc_RLatLon0.09_PT034H.grib2 2026-04-29 14:52 1.9M
20260429T12Z_MSC_RDPS_PrecipRate_Sfc_RLatLon0.09_PT034H.grib2 2026-04-29 14:52 174K
20260429T12Z_MSC_RDPS_PrecipType-Instant_Sfc_RLatLon0.09_PT034H.grib2 2026-04-29 14:52 562K
20260429T12Z_MSC_RDPS_Pressure-Trend3h_Sfc_RLatLon0.09_PT034H.grib2 2026-04-29 14:52 1.2M
20260429T12Z_MSC_RDPS_Pressure_MSL_RLatLon0.09_PT034H.grib2 2026-04-29 14:52 327K
20260429T12Z_MSC_RDPS_Pressure_PVU-1.5_RLatLon0.09_PT034H.grib2 2026-04-29 14:52 2.3M
20260429T12Z_MSC_RDPS_Pressure_PVU-1_RLatLon0.09_PT034H.grib2 2026-04-29 14:52 2.4M
20260429T12Z_MSC_RDPS_Pressure_PVU-2_RLatLon0.09_PT034H.grib2 2026-04-29 14:52 2.4M
20260429T12Z_MSC_RDPS_Pressure_Sfc_RLatLon0.09_PT034H.grib2 2026-04-29 14:52 499K
20260429T12Z_MSC_RDPS_RadiativeTemp_Sfc_RLatLon0.09_PT034H.grib2 2026-04-29 14:52 322K
20260429T12Z_MSC_RDPS_Rain-Accum1h_Sfc_RLatLon0.09_PT034H.grib2 2026-04-29 14:52 591K
20260429T12Z_MSC_RDPS_Rain-Accum_Sfc_RLatLon0.09_PT034H.grib2 2026-04-29 14:52 1.4M
20260429T12Z_MSC_RDPS_RelativeHumidity_AGL-2m_RLatLon0.09_PT034H.grib2 2026-04-29 14:52 1.0M
20260429T12Z_MSC_RDPS_RelativeHumidity_IsbL-0010_RLatLon0.09_PT034H.grib2 2026-04-29 14:52 630K
20260429T12Z_MSC_RDPS_RelativeHumidity_IsbL-0020_RLatLon0.09_PT034H.grib2 2026-04-29 14:52 685K
20260429T12Z_MSC_RDPS_RelativeHumidity_IsbL-0030_RLatLon0.09_PT034H.grib2 2026-04-29 14:52 605K
20260429T12Z_MSC_RDPS_RelativeHumidity_IsbL-0050_RLatLon0.09_PT034H.grib2 2026-04-29 14:52 370K
20260429T12Z_MSC_RDPS_RelativeHumidity_IsbL-0100_RLatLon0.09_PT034H.grib2 2026-04-29 14:52 284K
20260429T12Z_MSC_RDPS_RelativeHumidity_IsbL-0150_RLatLon0.09_PT034H.grib2 2026-04-29 14:52 416K
20260429T12Z_MSC_RDPS_RelativeHumidity_IsbL-0175_RLatLon0.09_PT034H.grib2 2026-04-29 14:52 481K
20260429T12Z_MSC_RDPS_RelativeHumidity_IsbL-0200_RLatLon0.09_PT034H.grib2 2026-04-29 14:52 558K
20260429T12Z_MSC_RDPS_RelativeHumidity_IsbL-0225_RLatLon0.09_PT034H.grib2 2026-04-29 14:52 631K
20260429T12Z_MSC_RDPS_RelativeHumidity_IsbL-0250_RLatLon0.09_PT034H.grib2 2026-04-29 14:52 703K
20260429T12Z_MSC_RDPS_RelativeHumidity_IsbL-0275_RLatLon0.09_PT034H.grib2 2026-04-29 14:52 725K
20260429T12Z_MSC_RDPS_RelativeHumidity_IsbL-0300_RLatLon0.09_PT034H.grib2 2026-04-29 14:52 770K
20260429T12Z_MSC_RDPS_RelativeHumidity_IsbL-0350_RLatLon0.09_PT034H.grib2 2026-04-29 14:52 789K
20260429T12Z_MSC_RDPS_RelativeHumidity_IsbL-0400_RLatLon0.09_PT034H.grib2 2026-04-29 14:52 797K
20260429T12Z_MSC_RDPS_RelativeHumidity_IsbL-0450_RLatLon0.09_PT034H.grib2 2026-04-29 14:52 805K
20260429T12Z_MSC_RDPS_RelativeHumidity_IsbL-0500_RLatLon0.09_PT034H.grib2 2026-04-29 14:52 807K
20260429T12Z_MSC_RDPS_RelativeHumidity_IsbL-0550_RLatLon0.09_PT034H.grib2 2026-04-29 14:52 829K
20260429T12Z_MSC_RDPS_RelativeHumidity_IsbL-0600_RLatLon0.09_PT034H.grib2 2026-04-29 14:52 862K
20260429T12Z_MSC_RDPS_RelativeHumidity_IsbL-0650_RLatLon0.09_PT034H.grib2 2026-04-29 14:52 887K
20260429T12Z_MSC_RDPS_RelativeHumidity_IsbL-0700_RLatLon0.09_PT034H.grib2 2026-04-29 14:52 899K
20260429T12Z_MSC_RDPS_RelativeHumidity_IsbL-0750_RLatLon0.09_PT034H.grib2 2026-04-29 14:52 945K
20260429T12Z_MSC_RDPS_RelativeHumidity_IsbL-0800_RLatLon0.09_PT034H.grib2 2026-04-29 14:52 1.0M
20260429T12Z_MSC_RDPS_RelativeHumidity_IsbL-0850_RLatLon0.09_PT034H.grib2 2026-04-29 14:52 1.0M
20260429T12Z_MSC_RDPS_RelativeHumidity_IsbL-0875_RLatLon0.09_PT034H.grib2 2026-04-29 14:52 1.1M
20260429T12Z_MSC_RDPS_RelativeHumidity_IsbL-0900_RLatLon0.09_PT034H.grib2 2026-04-29 14:52 1.1M
20260429T12Z_MSC_RDPS_RelativeHumidity_IsbL-0925_RLatLon0.09_PT034H.grib2 2026-04-29 14:52 1.1M
20260429T12Z_MSC_RDPS_RelativeHumidity_IsbL-0950_RLatLon0.09_PT034H.grib2 2026-04-29 14:52 1.1M
20260429T12Z_MSC_RDPS_RelativeHumidity_IsbL-0970_RLatLon0.09_PT034H.grib2 2026-04-29 14:52 1.0M
20260429T12Z_MSC_RDPS_RelativeHumidity_IsbL-0985_RLatLon0.09_PT034H.grib2 2026-04-29 14:52 1.0M
20260429T12Z_MSC_RDPS_RelativeHumidity_IsbL-1000_RLatLon0.09_PT034H.grib2 2026-04-29 14:52 1.0M
20260429T12Z_MSC_RDPS_RelativeHumidity_IsbL-1015_RLatLon0.09_PT034H.grib2 2026-04-29 14:52 1.0M
20260429T12Z_MSC_RDPS_Runoff-Accum_Sfc_RLatLon0.09_PT034H.grib2 2026-04-29 14:52 58K
20260429T12Z_MSC_RDPS_SWEATIndex_Sfc_RLatLon0.09_PT034H.grib2 2026-04-29 14:52 2.4M
20260429T12Z_MSC_RDPS_SeeingIndex_EAtm_RLatLon0.09_PT034H.grib2 2026-04-29 14:52 1.0M
20260429T12Z_MSC_RDPS_SensibleHeatNetFlux_Sfc_RLatLon0.09_PT034H.grib2 2026-04-29 14:52 341K
20260429T12Z_MSC_RDPS_ShowalterIndex_IsbL-0500_RLatLon0.09_PT034H.grib2 2026-04-29 14:52 2.6M
20260429T12Z_MSC_RDPS_SkyTransparencyIndex_EAtm_RLatLon0.09_PT034H.grib2 2026-04-29 14:52 696K
20260429T12Z_MSC_RDPS_Snow-Accum1h_Sfc_RLatLon0.09_PT034H.grib2 2026-04-29 14:52 526K
20260429T12Z_MSC_RDPS_Snow-Accum_Sfc_RLatLon0.09_PT034H.grib2 2026-04-29 14:52 724K
20260429T12Z_MSC_RDPS_SnowDensity_Sfc_RLatLon0.09_PT034H.grib2 2026-04-29 14:52 175K
20260429T12Z_MSC_RDPS_SnowDepth_Sfc_RLatLon0.09_PT034H.grib2 2026-04-29 14:52 678K
20260429T12Z_MSC_RDPS_SoilTemp_DBS-0to10cm_RLatLon0.09_PT034H.grib2 2026-04-29 14:52 237K
20260429T12Z_MSC_RDPS_SoilTemp_Sfc_RLatLon0.09_PT034H.grib2 2026-04-29 14:52 289K
20260429T12Z_MSC_RDPS_SoilVolumetricIceContent_Sfc_RLatLon0.09_PT034H.grib2 2026-04-29 14:52 163K
20260429T12Z_MSC_RDPS_SoilVolumetricWaterContent_DBS-0to10cm_RLatLon0.09_PT034H.grib2 2026-04-29 14:52 267K
20260429T12Z_MSC_RDPS_SoilVolumetricWaterContent_DBS-0to1cm_RLatLon0.09_PT034H.grib2 2026-04-29 14:52 336K
20260429T12Z_MSC_RDPS_SpecificHumidity_AGL-120m_RLatLon0.09_PT034H.grib2 2026-04-29 14:52 494K
20260429T12Z_MSC_RDPS_SpecificHumidity_AGL-2m_RLatLon0.09_PT034H.grib2 2026-04-29 14:52 662K
20260429T12Z_MSC_RDPS_SpecificHumidity_AGL-40m_RLatLon0.09_PT034H.grib2 2026-04-29 14:52 499K
20260429T12Z_MSC_RDPS_SpecificHumidity_AGL-80m_RLatLon0.09_PT034H.grib2 2026-04-29 14:52 495K
20260429T12Z_MSC_RDPS_SpecificHumidity_IsbL-0001_RLatLon0.09_PT034H.grib2 2026-04-29 14:52 363K
20260429T12Z_MSC_RDPS_SpecificHumidity_IsbL-0005_RLatLon0.09_PT034H.grib2 2026-04-29 14:52 362K
20260429T12Z_MSC_RDPS_SpecificHumidity_IsbL-0010_RLatLon0.09_PT034H.grib2 2026-04-29 14:52 397K
20260429T12Z_MSC_RDPS_SpecificHumidity_IsbL-0020_RLatLon0.09_PT034H.grib2 2026-04-29 14:52 389K
20260429T12Z_MSC_RDPS_SpecificHumidity_IsbL-0030_RLatLon0.09_PT034H.grib2 2026-04-29 14:52 372K
20260429T12Z_MSC_RDPS_SpecificHumidity_IsbL-0050_RLatLon0.09_PT034H.grib2 2026-04-29 14:52 489K
20260429T12Z_MSC_RDPS_SpecificHumidity_IsbL-0100_RLatLon0.09_PT034H.grib2 2026-04-29 14:52 453K
20260429T12Z_MSC_RDPS_SpecificHumidity_IsbL-0150_RLatLon0.09_PT034H.grib2 2026-04-29 14:52 463K
20260429T12Z_MSC_RDPS_SpecificHumidity_IsbL-0175_RLatLon0.09_PT034H.grib2 2026-04-29 14:52 438K
20260429T12Z_MSC_RDPS_SpecificHumidity_IsbL-0200_RLatLon0.09_PT034H.grib2 2026-04-29 14:52 469K
20260429T12Z_MSC_RDPS_SpecificHumidity_IsbL-0225_RLatLon0.09_PT034H.grib2 2026-04-29 14:52 474K
20260429T12Z_MSC_RDPS_SpecificHumidity_IsbL-0250_RLatLon0.09_PT034H.grib2 2026-04-29 14:52 521K
20260429T12Z_MSC_RDPS_SpecificHumidity_IsbL-0275_RLatLon0.09_PT034H.grib2 2026-04-29 14:52 478K
20260429T12Z_MSC_RDPS_SpecificHumidity_IsbL-0300_RLatLon0.09_PT034H.grib2 2026-04-29 14:52 453K
20260429T12Z_MSC_RDPS_SpecificHumidity_IsbL-0350_RLatLon0.09_PT034H.grib2 2026-04-29 14:52 570K
20260429T12Z_MSC_RDPS_SpecificHumidity_IsbL-0400_RLatLon0.09_PT034H.grib2 2026-04-29 14:52 522K
20260429T12Z_MSC_RDPS_SpecificHumidity_IsbL-0450_RLatLon0.09_PT034H.grib2 2026-04-29 14:52 577K
20260429T12Z_MSC_RDPS_SpecificHumidity_IsbL-0500_RLatLon0.09_PT034H.grib2 2026-04-29 14:52 511K
20260429T12Z_MSC_RDPS_SpecificHumidity_IsbL-0550_RLatLon0.09_PT034H.grib2 2026-04-29 14:52 587K
20260429T12Z_MSC_RDPS_SpecificHumidity_IsbL-0600_RLatLon0.09_PT034H.grib2 2026-04-29 14:52 651K
20260429T12Z_MSC_RDPS_SpecificHumidity_IsbL-0650_RLatLon0.09_PT034H.grib2 2026-04-29 14:52 571K
20260429T12Z_MSC_RDPS_SpecificHumidity_IsbL-0700_RLatLon0.09_PT034H.grib2 2026-04-29 14:52 611K
20260429T12Z_MSC_RDPS_SpecificHumidity_IsbL-0750_RLatLon0.09_PT034H.grib2 2026-04-29 14:52 666K
20260429T12Z_MSC_RDPS_SpecificHumidity_IsbL-0800_RLatLon0.09_PT034H.grib2 2026-04-29 14:52 740K
20260429T12Z_MSC_RDPS_SpecificHumidity_IsbL-0850_RLatLon0.09_PT034H.grib2 2026-04-29 14:52 806K
20260429T12Z_MSC_RDPS_SpecificHumidity_IsbL-0875_RLatLon0.09_PT034H.grib2 2026-04-29 14:52 833K
20260429T12Z_MSC_RDPS_SpecificHumidity_IsbL-0900_RLatLon0.09_PT034H.grib2 2026-04-29 14:52 712K
20260429T12Z_MSC_RDPS_SpecificHumidity_IsbL-0925_RLatLon0.09_PT034H.grib2 2026-04-29 14:52 714K
20260429T12Z_MSC_RDPS_SpecificHumidity_IsbL-0950_RLatLon0.09_PT034H.grib2 2026-04-29 14:52 712K
20260429T12Z_MSC_RDPS_SpecificHumidity_IsbL-0970_RLatLon0.09_PT034H.grib2 2026-04-29 14:52 700K
20260429T12Z_MSC_RDPS_SpecificHumidity_IsbL-0985_RLatLon0.09_PT034H.grib2 2026-04-29 14:52 691K
20260429T12Z_MSC_RDPS_SpecificHumidity_IsbL-1000_RLatLon0.09_PT034H.grib2 2026-04-29 14:52 683K
20260429T12Z_MSC_RDPS_SpecificHumidity_IsbL-1015_RLatLon0.09_PT034H.grib2 2026-04-29 14:52 673K
20260429T12Z_MSC_RDPS_SpecificHumidity_Sfc_RLatLon0.09_PT034H.grib2 2026-04-29 14:52 340K
20260429T12Z_MSC_RDPS_StormRelativeHelicity_EtaL-10000_RLatLon0.09_PT034H.grib2 2026-04-29 14:52 1.1M
20260429T12Z_MSC_RDPS_StormSeverityIndex_EtaL-10000_RLatLon0.09_PT034H.grib2 2026-04-29 14:52 1.2M
20260429T12Z_MSC_RDPS_Thickness_IsbL-0850to0700_RLatLon0.09_PT034H.grib2 2026-04-29 14:52 178K
20260429T12Z_MSC_RDPS_Thickness_IsbL-1000to0500_RLatLon0.09_PT034H.grib2 2026-04-29 14:52 138K
20260429T12Z_MSC_RDPS_Thickness_IsbL-1000to0850_RLatLon0.09_PT034H.grib2 2026-04-29 14:52 187K
20260429T12Z_MSC_RDPS_TotalCloudCover_Sfc_RLatLon0.09_PT034H.grib2 2026-04-29 14:52 652K
20260429T12Z_MSC_RDPS_TotalTotalsIndex_Sfc_RLatLon0.09_PT034H.grib2 2026-04-29 14:52 2.3M
20260429T12Z_MSC_RDPS_UVIndex-ClearSky_Sfc_RLatLon0.09_PT034H.grib2 2026-04-29 14:52 175K
20260429T12Z_MSC_RDPS_UVIndex_Sfc_RLatLon0.09_PT034H.grib2 2026-04-29 14:52 409K
20260429T12Z_MSC_RDPS_UpwardLongwaveRadiationFlux_NTAtm_RLatLon0.09_PT034H.grib2 2026-04-29 14:52 384K
20260429T12Z_MSC_RDPS_UpwardShortwaveRadiationFlux_NTAtm_RLatLon0.09_PT034H.grib2 2026-04-29 14:52 449K
20260429T12Z_MSC_RDPS_VerticalVelocity_IsbL-0250_RLatLon0.09_PT034H.grib2 2026-04-29 14:52 434K
20260429T12Z_MSC_RDPS_VerticalVelocity_IsbL-0500_RLatLon0.09_PT034H.grib2 2026-04-29 14:52 544K
20260429T12Z_MSC_RDPS_VerticalVelocity_IsbL-0700_RLatLon0.09_PT034H.grib2 2026-04-29 14:52 600K
20260429T12Z_MSC_RDPS_VerticalVelocity_IsbL-0850_RLatLon0.09_PT034H.grib2 2026-04-29 14:52 646K
20260429T12Z_MSC_RDPS_VerticalWindShear_EtaL-6500_RLatLon0.09_PT034H.grib2 2026-04-29 14:52 1.2M
20260429T12Z_MSC_RDPS_WindChill_Sfc_RLatLon0.09_PT034H.grib2 2026-04-29 14:52 1.1M
20260429T12Z_MSC_RDPS_WindDir_AGL-10m_RLatLon0.09_PT034H.grib2 2026-04-29 14:52 967K
20260429T12Z_MSC_RDPS_WindDir_AGL-120m_RLatLon0.09_PT034H.grib2 2026-04-29 14:52 616K
20260429T12Z_MSC_RDPS_WindDir_AGL-40m_RLatLon0.09_PT034H.grib2 2026-04-29 14:52 636K
20260429T12Z_MSC_RDPS_WindDir_AGL-80m_RLatLon0.09_PT034H.grib2 2026-04-29 14:52 624K
20260429T12Z_MSC_RDPS_WindDir_IsbL-0001_RLatLon0.09_PT034H.grib2 2026-04-29 14:52 308K
20260429T12Z_MSC_RDPS_WindDir_IsbL-0005_RLatLon0.09_PT034H.grib2 2026-04-29 14:52 366K
20260429T12Z_MSC_RDPS_WindDir_IsbL-0010_RLatLon0.09_PT034H.grib2 2026-04-29 14:52 385K
20260429T12Z_MSC_RDPS_WindDir_IsbL-0020_RLatLon0.09_PT034H.grib2 2026-04-29 14:52 424K
20260429T12Z_MSC_RDPS_WindDir_IsbL-0030_RLatLon0.09_PT034H.grib2 2026-04-29 14:52 409K
20260429T12Z_MSC_RDPS_WindDir_IsbL-0050_RLatLon0.09_PT034H.grib2 2026-04-29 14:52 416K
20260429T12Z_MSC_RDPS_WindDir_IsbL-0100_RLatLon0.09_PT034H.grib2 2026-04-29 14:52 431K
20260429T12Z_MSC_RDPS_WindDir_IsbL-0150_RLatLon0.09_PT034H.grib2 2026-04-29 14:52 431K
20260429T12Z_MSC_RDPS_WindDir_IsbL-0175_RLatLon0.09_PT034H.grib2 2026-04-29 14:52 449K
20260429T12Z_MSC_RDPS_WindDir_IsbL-0200_RLatLon0.09_PT034H.grib2 2026-04-29 14:52 454K
20260429T12Z_MSC_RDPS_WindDir_IsbL-0225_RLatLon0.09_PT034H.grib2 2026-04-29 14:52 460K
20260429T12Z_MSC_RDPS_WindDir_IsbL-0250_RLatLon0.09_PT034H.grib2 2026-04-29 14:52 462K
20260429T12Z_MSC_RDPS_WindDir_IsbL-0275_RLatLon0.09_PT034H.grib2 2026-04-29 14:52 483K
20260429T12Z_MSC_RDPS_WindDir_IsbL-0300_RLatLon0.09_PT034H.grib2 2026-04-29 14:52 479K
20260429T12Z_MSC_RDPS_WindDir_IsbL-0350_RLatLon0.09_PT034H.grib2 2026-04-29 14:52 496K
20260429T12Z_MSC_RDPS_WindDir_IsbL-0400_RLatLon0.09_PT034H.grib2 2026-04-29 14:52 508K
20260429T12Z_MSC_RDPS_WindDir_IsbL-0450_RLatLon0.09_PT034H.grib2 2026-04-29 14:52 516K
20260429T12Z_MSC_RDPS_WindDir_IsbL-0500_RLatLon0.09_PT034H.grib2 2026-04-29 14:52 538K
20260429T12Z_MSC_RDPS_WindDir_IsbL-0550_RLatLon0.09_PT034H.grib2 2026-04-29 14:52 559K
20260429T12Z_MSC_RDPS_WindDir_IsbL-0600_RLatLon0.09_PT034H.grib2 2026-04-29 14:52 597K
20260429T12Z_MSC_RDPS_WindDir_IsbL-0650_RLatLon0.09_PT034H.grib2 2026-04-29 14:52 641K
20260429T12Z_MSC_RDPS_WindDir_IsbL-0700_RLatLon0.09_PT034H.grib2 2026-04-29 14:52 691K
20260429T12Z_MSC_RDPS_WindDir_IsbL-0750_RLatLon0.09_PT034H.grib2 2026-04-29 14:52 741K
20260429T12Z_MSC_RDPS_WindDir_IsbL-0800_RLatLon0.09_PT034H.grib2 2026-04-29 14:52 799K
20260429T12Z_MSC_RDPS_WindDir_IsbL-0850_RLatLon0.09_PT034H.grib2 2026-04-29 14:52 860K
20260429T12Z_MSC_RDPS_WindDir_IsbL-0875_RLatLon0.09_PT034H.grib2 2026-04-29 14:52 887K
20260429T12Z_MSC_RDPS_WindDir_IsbL-0900_RLatLon0.09_PT034H.grib2 2026-04-29 14:52 911K
20260429T12Z_MSC_RDPS_WindDir_IsbL-0925_RLatLon0.09_PT034H.grib2 2026-04-29 14:52 921K
20260429T12Z_MSC_RDPS_WindDir_IsbL-0950_RLatLon0.09_PT034H.grib2 2026-04-29 14:52 921K
20260429T12Z_MSC_RDPS_WindDir_IsbL-0970_RLatLon0.09_PT034H.grib2 2026-04-29 14:52 927K
20260429T12Z_MSC_RDPS_WindDir_IsbL-0985_RLatLon0.09_PT034H.grib2 2026-04-29 14:52 936K
20260429T12Z_MSC_RDPS_WindDir_IsbL-1000_RLatLon0.09_PT034H.grib2 2026-04-29 14:52 948K
20260429T12Z_MSC_RDPS_WindDir_IsbL-1015_RLatLon0.09_PT034H.grib2 2026-04-29 14:52 961K
20260429T12Z_MSC_RDPS_WindGust-Max_AGL-10m_RLatLon0.09_PT034H.grib2 2026-04-29 14:52 1.0M
20260429T12Z_MSC_RDPS_WindGust-Min_AGL-10m_RLatLon0.09_PT034H.grib2 2026-04-29 14:52 966K
20260429T12Z_MSC_RDPS_WindGust_AGL-10m_RLatLon0.09_PT034H.grib2 2026-04-29 14:52 1.0M
20260429T12Z_MSC_RDPS_WindSpeed_AGL-10m_RLatLon0.09_PT034H.grib2 2026-04-29 14:52 833K
20260429T12Z_MSC_RDPS_WindSpeed_AGL-120m_RLatLon0.09_PT034H.grib2 2026-04-29 14:52 531K
20260429T12Z_MSC_RDPS_WindSpeed_AGL-40m_RLatLon0.09_PT034H.grib2 2026-04-29 14:52 533K
20260429T12Z_MSC_RDPS_WindSpeed_AGL-80m_RLatLon0.09_PT034H.grib2 2026-04-29 14:52 531K
20260429T12Z_MSC_RDPS_WindSpeed_IsbL-0001_RLatLon0.09_PT034H.grib2 2026-04-29 14:52 253K
20260429T12Z_MSC_RDPS_WindSpeed_IsbL-0005_RLatLon0.09_PT034H.grib2 2026-04-29 14:52 383K
20260429T12Z_MSC_RDPS_WindSpeed_IsbL-0010_RLatLon0.09_PT034H.grib2 2026-04-29 14:52 402K
20260429T12Z_MSC_RDPS_WindSpeed_IsbL-0020_RLatLon0.09_PT034H.grib2 2026-04-29 14:52 329K
20260429T12Z_MSC_RDPS_WindSpeed_IsbL-0030_RLatLon0.09_PT034H.grib2 2026-04-29 14:52 328K
20260429T12Z_MSC_RDPS_WindSpeed_IsbL-0050_RLatLon0.09_PT034H.grib2 2026-04-29 14:52 350K
20260429T12Z_MSC_RDPS_WindSpeed_IsbL-0100_RLatLon0.09_PT034H.grib2 2026-04-29 14:52 478K
20260429T12Z_MSC_RDPS_WindSpeed_IsbL-0150_RLatLon0.09_PT034H.grib2 2026-04-29 14:52 383K
20260429T12Z_MSC_RDPS_WindSpeed_IsbL-0175_RLatLon0.09_PT034H.grib2 2026-04-29 14:52 429K
20260429T12Z_MSC_RDPS_WindSpeed_IsbL-0200_RLatLon0.09_PT034H.grib2 2026-04-29 14:52 445K
20260429T12Z_MSC_RDPS_WindSpeed_IsbL-0225_RLatLon0.09_PT034H.grib2 2026-04-29 14:52 451K
20260429T12Z_MSC_RDPS_WindSpeed_IsbL-0250_RLatLon0.09_PT034H.grib2 2026-04-29 14:52 455K
20260429T12Z_MSC_RDPS_WindSpeed_IsbL-0275_RLatLon0.09_PT034H.grib2 2026-04-29 14:52 472K
20260429T12Z_MSC_RDPS_WindSpeed_IsbL-0300_RLatLon0.09_PT034H.grib2 2026-04-29 14:52 467K
20260429T12Z_MSC_RDPS_WindSpeed_IsbL-0350_RLatLon0.09_PT034H.grib2 2026-04-29 14:52 479K
20260429T12Z_MSC_RDPS_WindSpeed_IsbL-0400_RLatLon0.09_PT034H.grib2 2026-04-29 14:52 482K
20260429T12Z_MSC_RDPS_WindSpeed_IsbL-0450_RLatLon0.09_PT034H.grib2 2026-04-29 14:52 466K
20260429T12Z_MSC_RDPS_WindSpeed_IsbL-0500_RLatLon0.09_PT034H.grib2 2026-04-29 14:52 467K
20260429T12Z_MSC_RDPS_WindSpeed_IsbL-0550_RLatLon0.09_PT034H.grib2 2026-04-29 14:52 468K
20260429T12Z_MSC_RDPS_WindSpeed_IsbL-0600_RLatLon0.09_PT034H.grib2 2026-04-29 14:52 478K
20260429T12Z_MSC_RDPS_WindSpeed_IsbL-0650_RLatLon0.09_PT034H.grib2 2026-04-29 14:52 619K
20260429T12Z_MSC_RDPS_WindSpeed_IsbL-0700_RLatLon0.09_PT034H.grib2 2026-04-29 14:52 643K
20260429T12Z_MSC_RDPS_WindSpeed_IsbL-0750_RLatLon0.09_PT034H.grib2 2026-04-29 14:52 671K
20260429T12Z_MSC_RDPS_WindSpeed_IsbL-0800_RLatLon0.09_PT034H.grib2 2026-04-29 14:52 755K
20260429T12Z_MSC_RDPS_WindSpeed_IsbL-0850_RLatLon0.09_PT034H.grib2 2026-04-29 14:52 806K
20260429T12Z_MSC_RDPS_WindSpeed_IsbL-0875_RLatLon0.09_PT034H.grib2 2026-04-29 14:52 828K
20260429T12Z_MSC_RDPS_WindSpeed_IsbL-0900_RLatLon0.09_PT034H.grib2 2026-04-29 14:52 847K
20260429T12Z_MSC_RDPS_WindSpeed_IsbL-0925_RLatLon0.09_PT034H.grib2 2026-04-29 14:52 856K
20260429T12Z_MSC_RDPS_WindSpeed_IsbL-0950_RLatLon0.09_PT034H.grib2 2026-04-29 14:52 856K
20260429T12Z_MSC_RDPS_WindSpeed_IsbL-0970_RLatLon0.09_PT034H.grib2 2026-04-29 14:52 857K
20260429T12Z_MSC_RDPS_WindSpeed_IsbL-0985_RLatLon0.09_PT034H.grib2 2026-04-29 14:52 850K
20260429T12Z_MSC_RDPS_WindSpeed_IsbL-1000_RLatLon0.09_PT034H.grib2 2026-04-29 14:52 845K
20260429T12Z_MSC_RDPS_WindSpeed_IsbL-1015_RLatLon0.09_PT034H.grib2 2026-04-29 14:52 835K
20260429T12Z_MSC_RDPS_WindU_AGL-10m_RLatLon0.09_PT034H.grib2 2026-04-29 14:52 431K
20260429T12Z_MSC_RDPS_WindU_AGL-120m_RLatLon0.09_PT034H.grib2 2026-04-29 14:52 532K
20260429T12Z_MSC_RDPS_WindU_AGL-40m_RLatLon0.09_PT034H.grib2 2026-04-29 14:52 534K
20260429T12Z_MSC_RDPS_WindU_AGL-80m_RLatLon0.09_PT034H.grib2 2026-04-29 14:52 533K
20260429T12Z_MSC_RDPS_WindU_IsbL-0001_RLatLon0.09_PT034H.grib2 2026-04-29 14:52 243K
20260429T12Z_MSC_RDPS_WindU_IsbL-0005_RLatLon0.09_PT034H.grib2 2026-04-29 14:52 286K
20260429T12Z_MSC_RDPS_WindU_IsbL-0010_RLatLon0.09_PT034H.grib2 2026-04-29 14:52 299K
20260429T12Z_MSC_RDPS_WindU_IsbL-0020_RLatLon0.09_PT034H.grib2 2026-04-29 14:52 355K
20260429T12Z_MSC_RDPS_WindU_IsbL-0030_RLatLon0.09_PT034H.grib2 2026-04-29 14:52 317K
20260429T12Z_MSC_RDPS_WindU_IsbL-0050_RLatLon0.09_PT034H.grib2 2026-04-29 14:52 343K
20260429T12Z_MSC_RDPS_WindU_IsbL-0100_RLatLon0.09_PT034H.grib2 2026-04-29 14:52 434K
20260429T12Z_MSC_RDPS_WindU_IsbL-0150_RLatLon0.09_PT034H.grib2 2026-04-29 14:52 401K
20260429T12Z_MSC_RDPS_WindU_IsbL-0175_RLatLon0.09_PT034H.grib2 2026-04-29 14:52 424K
20260429T12Z_MSC_RDPS_WindU_IsbL-0200_RLatLon0.09_PT034H.grib2 2026-04-29 14:52 439K
20260429T12Z_MSC_RDPS_WindU_IsbL-0225_RLatLon0.09_PT034H.grib2 2026-04-29 14:52 345K
20260429T12Z_MSC_RDPS_WindU_IsbL-0250_RLatLon0.09_PT034H.grib2 2026-04-29 14:52 346K
20260429T12Z_MSC_RDPS_WindU_IsbL-0275_RLatLon0.09_PT034H.grib2 2026-04-29 14:52 360K
20260429T12Z_MSC_RDPS_WindU_IsbL-0300_RLatLon0.09_PT034H.grib2 2026-04-29 14:52 355K
20260429T12Z_MSC_RDPS_WindU_IsbL-0350_RLatLon0.09_PT034H.grib2 2026-04-29 14:52 363K
20260429T12Z_MSC_RDPS_WindU_IsbL-0400_RLatLon0.09_PT034H.grib2 2026-04-29 14:52 368K
20260429T12Z_MSC_RDPS_WindU_IsbL-0450_RLatLon0.09_PT034H.grib2 2026-04-29 14:52 470K
20260429T12Z_MSC_RDPS_WindU_IsbL-0500_RLatLon0.09_PT034H.grib2 2026-04-29 14:52 472K
20260429T12Z_MSC_RDPS_WindU_IsbL-0550_RLatLon0.09_PT034H.grib2 2026-04-29 14:52 473K
20260429T12Z_MSC_RDPS_WindU_IsbL-0600_RLatLon0.09_PT034H.grib2 2026-04-29 14:52 484K
20260429T12Z_MSC_RDPS_WindU_IsbL-0650_RLatLon0.09_PT034H.grib2 2026-04-29 14:52 488K
20260429T12Z_MSC_RDPS_WindU_IsbL-0700_RLatLon0.09_PT034H.grib2 2026-04-29 14:52 511K
20260429T12Z_MSC_RDPS_WindU_IsbL-0750_RLatLon0.09_PT034H.grib2 2026-04-29 14:52 536K
20260429T12Z_MSC_RDPS_WindU_IsbL-0800_RLatLon0.09_PT034H.grib2 2026-04-29 14:52 571K
20260429T12Z_MSC_RDPS_WindU_IsbL-0850_RLatLon0.09_PT034H.grib2 2026-04-29 14:52 750K
20260429T12Z_MSC_RDPS_WindU_IsbL-0875_RLatLon0.09_PT034H.grib2 2026-04-29 14:52 634K
20260429T12Z_MSC_RDPS_WindU_IsbL-0900_RLatLon0.09_PT034H.grib2 2026-04-29 14:52 649K
20260429T12Z_MSC_RDPS_WindU_IsbL-0925_RLatLon0.09_PT034H.grib2 2026-04-29 14:52 656K
20260429T12Z_MSC_RDPS_WindU_IsbL-0950_RLatLon0.09_PT034H.grib2 2026-04-29 14:52 653K
20260429T12Z_MSC_RDPS_WindU_IsbL-0970_RLatLon0.09_PT034H.grib2 2026-04-29 14:52 652K
20260429T12Z_MSC_RDPS_WindU_IsbL-0985_RLatLon0.09_PT034H.grib2 2026-04-29 14:52 790K
20260429T12Z_MSC_RDPS_WindU_IsbL-1000_RLatLon0.09_PT034H.grib2 2026-04-29 14:52 786K
20260429T12Z_MSC_RDPS_WindU_IsbL-1015_RLatLon0.09_PT034H.grib2 2026-04-29 14:52 825K
20260429T12Z_MSC_RDPS_WindV_AGL-10m_RLatLon0.09_PT034H.grib2 2026-04-29 14:52 429K
20260429T12Z_MSC_RDPS_WindV_AGL-120m_RLatLon0.09_PT034H.grib2 2026-04-29 14:52 528K
20260429T12Z_MSC_RDPS_WindV_AGL-40m_RLatLon0.09_PT034H.grib2 2026-04-29 14:52 530K
20260429T12Z_MSC_RDPS_WindV_AGL-80m_RLatLon0.09_PT034H.grib2 2026-04-29 14:52 528K
20260429T12Z_MSC_RDPS_WindV_IsbL-0001_RLatLon0.09_PT034H.grib2 2026-04-29 14:52 245K
20260429T12Z_MSC_RDPS_WindV_IsbL-0005_RLatLon0.09_PT034H.grib2 2026-04-29 14:52 287K
20260429T12Z_MSC_RDPS_WindV_IsbL-0010_RLatLon0.09_PT034H.grib2 2026-04-29 14:52 302K
20260429T12Z_MSC_RDPS_WindV_IsbL-0020_RLatLon0.09_PT034H.grib2 2026-04-29 14:52 320K
20260429T12Z_MSC_RDPS_WindV_IsbL-0030_RLatLon0.09_PT034H.grib2 2026-04-29 14:52 322K
20260429T12Z_MSC_RDPS_WindV_IsbL-0050_RLatLon0.09_PT034H.grib2 2026-04-29 14:52 345K
20260429T12Z_MSC_RDPS_WindV_IsbL-0100_RLatLon0.09_PT034H.grib2 2026-04-29 14:52 430K
20260429T12Z_MSC_RDPS_WindV_IsbL-0150_RLatLon0.09_PT034H.grib2 2026-04-29 14:52 397K
20260429T12Z_MSC_RDPS_WindV_IsbL-0175_RLatLon0.09_PT034H.grib2 2026-04-29 14:52 419K
20260429T12Z_MSC_RDPS_WindV_IsbL-0200_RLatLon0.09_PT034H.grib2 2026-04-29 14:52 435K
20260429T12Z_MSC_RDPS_WindV_IsbL-0225_RLatLon0.09_PT034H.grib2 2026-04-29 14:52 440K
20260429T12Z_MSC_RDPS_WindV_IsbL-0250_RLatLon0.09_PT034H.grib2 2026-04-29 14:52 343K
20260429T12Z_MSC_RDPS_WindV_IsbL-0275_RLatLon0.09_PT034H.grib2 2026-04-29 14:52 356K
20260429T12Z_MSC_RDPS_WindV_IsbL-0300_RLatLon0.09_PT034H.grib2 2026-04-29 14:52 351K
20260429T12Z_MSC_RDPS_WindV_IsbL-0350_RLatLon0.09_PT034H.grib2 2026-04-29 14:52 362K
20260429T12Z_MSC_RDPS_WindV_IsbL-0400_RLatLon0.09_PT034H.grib2 2026-04-29 14:52 364K
20260429T12Z_MSC_RDPS_WindV_IsbL-0450_RLatLon0.09_PT034H.grib2 2026-04-29 14:52 467K
20260429T12Z_MSC_RDPS_WindV_IsbL-0500_RLatLon0.09_PT034H.grib2 2026-04-29 14:52 468K
20260429T12Z_MSC_RDPS_WindV_IsbL-0550_RLatLon0.09_PT034H.grib2 2026-04-29 14:52 470K
20260429T12Z_MSC_RDPS_WindV_IsbL-0600_RLatLon0.09_PT034H.grib2 2026-04-29 14:52 482K
20260429T12Z_MSC_RDPS_WindV_IsbL-0650_RLatLon0.09_PT034H.grib2 2026-04-29 14:52 485K
20260429T12Z_MSC_RDPS_WindV_IsbL-0700_RLatLon0.09_PT034H.grib2 2026-04-29 14:52 506K
20260429T12Z_MSC_RDPS_WindV_IsbL-0750_RLatLon0.09_PT034H.grib2 2026-04-29 14:52 530K
20260429T12Z_MSC_RDPS_WindV_IsbL-0800_RLatLon0.09_PT034H.grib2 2026-04-29 14:52 565K
20260429T12Z_MSC_RDPS_WindV_IsbL-0850_RLatLon0.09_PT034H.grib2 2026-04-29 14:52 610K
20260429T12Z_MSC_RDPS_WindV_IsbL-0875_RLatLon0.09_PT034H.grib2 2026-04-29 14:52 630K
20260429T12Z_MSC_RDPS_WindV_IsbL-0900_RLatLon0.09_PT034H.grib2 2026-04-29 14:52 785K
20260429T12Z_MSC_RDPS_WindV_IsbL-0925_RLatLon0.09_PT034H.grib2 2026-04-29 14:52 792K
20260429T12Z_MSC_RDPS_WindV_IsbL-0950_RLatLon0.09_PT034H.grib2 2026-04-29 14:52 790K
20260429T12Z_MSC_RDPS_WindV_IsbL-0970_RLatLon0.09_PT034H.grib2 2026-04-29 14:52 789K
20260429T12Z_MSC_RDPS_WindV_IsbL-0985_RLatLon0.09_PT034H.grib2 2026-04-29 14:52 786K
20260429T12Z_MSC_RDPS_WindV_IsbL-1000_RLatLon0.09_PT034H.grib2 2026-04-29 14:52 827K
20260429T12Z_MSC_RDPS_WindV_IsbL-1015_RLatLon0.09_PT034H.grib2 2026-04-29 14:52 819K